CZ-6A DEB

Last updated on Tue Sep 16 2025 00:02:08 GMT+0000 (Coordinated Universal Time)

1 65548U 25199E 25258.57368684 .00000121 00000+0 41770-4 0 9999 2 65548 85.9960 167.2813 0010101 239.6375 120.3818 14.26935551 1233
UTC large
Height (km)
Speed (km/s)
/
Latitude / Longitude
Inclination (degrees)
Orbital Period (minutes)
Azimuth
Elevation
Range (km)
Doppler Factor

Next 0 passes for location: London (51.5072 / 0.1276)

Sorry there are no passes over London.